Regional Weather Roundup
Issued by NWS

Home | Current Version | Previous Version | Graphics & Text | Print | Product List | Glossary Off
Versions: 1 2 3 4 5 6 7 8 9 10 11 12 13 14 15 16 17 18 19 20 21 22 23 24 25 26 27 28 29 30 31 32 33 34 35 36 37 38 39 40 41 42 43 44 45 46 47 48 49 50

427
ASUS43 KMPX 010910
RWRMN
WEATHER ROUNDUP FOR MINNESOTA
NATIONAL WEATHER SERVICE TWIN CITIES/CHANHASSEN MN
400 AM CDT SUN MAY 01 2016


NOTE: "FAIR" INDICATES FEW OR NO CLOUDS BELOW 12,000 FEET WITH NO
SIGNIFICANT WEATHER AND/OR OBSTRUCTIONS TO VISIBILITY. N/A MEANS
CURRENT SKY AND/OR WEATHER CONDITIONS ARE NOT AVAILABLE.

MNZ060>063-068>070-011000-
   Twin Cities Metro

CITY           SKY/WX    TMP DP  RH WIND       PRES   REMARKS
TWIN CITIES    CLOUDY    43  32  65 N7        30.13S
ST PAUL        CLOUDY    44  32  62 N5        30.14R
CRYSTAL        CLOUDY    42  32  67 NE6       30.13R
BLAINE         CLOUDY    41  34  75 N6        30.14R
EDEN PRAIRIE   CLOUDY    44  31  60 N8        30.12R
SOUTH ST PAUL  MOCLDY    44  32  63 N5        30.12S
LAKE ELMO      FAIR      43  32  65 N5        30.13S
$$
MNZ001>005-007-008-013>017-022>024-027-028-011000-
   Northwest Minnesota

CITY           SKY/WX    TMP DP  RH WIND       PRES   REMARKS
BEMIDJI        CLEAR     28  26  91 CALM      30.26R
HALLOCK        CLEAR     36  25  64 N3        30.29R
ROSEAU         CLEAR     36  28  75 CALM      30.29R
WARROAD        CLEAR     39  32  75 N6        30.29R
THIEF RVR FALL CLEAR     39  25  56 NE7       30.28R
CROOKSTON      CLEAR     39  28  65 E6        30.28R
FOSSTON        CLEAR     30  25  80 CALM      30.27R
DETROIT LAKES  CLEAR     37  32  81 E3        30.26R
MOORHEAD       CLEAR     39  30  70 SE5       30.26R
PARK RAPIDS    CLEAR     38  28  67 N3        30.23S
MAHNOMEN       FAIR      38  30  70 SE3       30.26R
$$
MNZ006-009>011-018-025>026-011000-
   North Central Minnesota

CITY           SKY/WX    TMP DP  RH WIND       PRES   REMARKS
BAUDETTE       CLEAR     35  26  69 E3        30.27R
FLAG ISLAND    CLEAR     43  36  75 CALM      30.28S
INTL FALLS     CLEAR     34  27  75 NE6       30.27S WCI  29
WASKISH        CLEAR     36  30  80 SE5       30.27R
BIG FORK       CLEAR     28  25  86 CALM      30.26R
LONGVILLE      CLEAR     30  27  86 CALM      30.23S
GRAND RAPIDS   CLEAR     30  25  80 CALM      30.25R
CRANE LAKE     CLEAR     25  25 100 CALM      30.29S
ORR            CLEAR     28  27  93 CALM      30.24R
COOK           CLEAR     27  27 100 CALM      30.26R
WALKER         FAIR      34  27  75 NE3       30.25R
$$
MNZ012-019>021-037-011000-
   Northeast Minnesota

CITY           SKY/WX    TMP DP  RH WIND       PRES   REMARKS
DULUTH         CLEAR     33  27  78 NE7       30.21S WCI  27
ELY            CLEAR     28  27  93 CALM      30.25R
HIBBING        CLEAR     24  23  96 CALM      30.24R
EVELETH        CLEAR     28  27  93 CALM      30.25S
DULUTH HARBOR  CLOUDY    39  36  87 N12       30.23S
TWO HARBORS    CLEAR     37  28  70 N3        30.21S
SILVER BAY     CLEAR     27  25  93 CALM      30.22R
GRAND MARAIS     N/A     41  28  60 N8G17     30.24S
G MARAIS ARPRT CLEAR     28  21  74 N8        30.22S WCI  20
$$
MNZ029>031-032-039>041-046>048-054>057-064-011000-
   West Central Minnesota

CITY           SKY/WX    TMP DP  RH WIND       PRES   REMARKS
FERGUS FALLS   CLEAR     37  28  70 NE5       30.22S
WHEATON        CLEAR     37  30  75 N6        30.24R
MORRIS         CLOUDY    37  28  70 NE7       30.19R
ALEXANDRIA     CLOUDY    37  27  67 NE10      30.20R
ELBOW LAKE     FAIR      38  31  74 NE8       30.21S
WADENA         CLEAR     34  27  75 N7        30.22S WCI  28
GLENWOOD       CLOUDY    36  28  75 NE10      30.19R
APPLETON       PTCLDY    39  28  65 NE9       30.18R
BENSON         CLOUDY    39  27  60 E6        30.18R
ORTONVILLE     CLOUDY    37  28  70 NE9       30.19R
MADISON        PTCLDY    37  30  75 N6        30.18R
WILLMAR        FAIR      41  30  65 NE10      30.17R
$$
MNZ033>034-036-042>043-049>051-058-059-011000-
   Central Minnesota

CITY           SKY/WX    TMP DP  RH WIND       PRES   REMARKS
ST CLOUD       CLOUDY    39  29  67 N6        30.17R
SAUK CENTRE    FAIR      36  28  73 N7        30.19R
PAYNESVILLE    MOCLDY    37  29  72 N8        30.17S
AITKIN         CLEAR     36  25  64 CALM      30.21R
PINE RIVER     CLEAR     34  27  75 N5        30.26R WCI  30
BRAINERD       CLEAR     36  27  69 NE3       30.22R
STAPLES        CLEAR     36  27  69 N5        30.21S
LONG PRAIRIE   FAIR      36  28  75 N8        30.20R
LITTLE FALLS   CLOUDY    36  28  75 CALM      30.19R
LITCHFIELD     CLOUDY    39  32  75 NE6       30.16R
BUFFALO        MOCLDY    40  31  71 N6        30.16R
MAPLE LAKE     MOCLDY    39  32  75 N5        30.17R
HUTCHINSON     CLEAR     41  32  71 N9        30.15R
$$
MNZ037-044-045-052-053-011000-
   East Central Minnesota

CITY           SKY/WX    TMP DP  RH WIND       PRES   REMARKS
PRINCETON      CLOUDY    39  30  70 NE8       30.17R
MORA           CLOUDY    36  30  80 NE6       30.19S
CAMBRIDGE      CLOUDY    41  30  65 N6        30.15R
RUSH CITY      CLOUDY    37  31  78 NE6       30.18R
MOOSE LAKE     CLOUDY    36  28  75 NE8       30.19R
HINCKLEY       FAIR      36  32  87 N9        30.18S
CLOQUET        CLEAR     36  28  75 NE6       30.21S
MCGREGOR       CLEAR     36  30  80 NE7       30.22S
$$
MNZ071>073-080-081-089-090-097-098-011000-
   Southwest Minnesota

CITY           SKY/WX    TMP DP  RH WIND       PRES   REMARKS
MONTEVIDEO     CLOUDY    39  30  70 E9        30.18R
GRANITE FALLS  CLOUDY    40  32  72 N10       30.17R
CANBY          CLOUDY    42  35  75 NW7       30.18R
MARSHALL       CLOUDY    41  33  73 NE7       30.14S
REDWOOD FALLS  CLOUDY    43  30  60 VRB5      30.13R
OLIVIA         MOCLDY    39  30  70 NE10      30.14R
PIPESTONE      CLOUDY    43  37  81 NE7       30.10S
WINDOM         DRIZZLE   43  39  87 N10       30.10S
WORTHINGTON    CLOUDY    42  40  92 NE18      30.08S
JACKSON        CLOUDY    43  39  87 NE18      30.07S
TRACY          CLOUDY    42  40  91 N3        30.13R
SLAYTON        DRIZZLE   40  40 100 NE7       30.12R
$$
MNZ065>067-074>077-082>085-091>093-011000-
   South Central Minnesota

CITY           SKY/WX    TMP DP  RH WIND       PRES   REMARKS
MANKATO        CLOUDY    45  36  70 N7        30.10S
NEW ULM        LGT RAIN  43  36  75 NE6       30.12R
ST JAMES       LGT RAIN  37  36  93 N8        30.11S
FAIRMONT       CLOUDY    43  36  75 NE14      30.07S
GLENCOE        CLOUDY    42  34  74 N7        30.13R
FARIBAULT      CLOUDY    43  39  87 VRB5      30.10S
OWATONNA       DRIZZLE   43  39  87 NE9       30.08F
WASECA         LGT RAIN  41  39  93 N10       30.10S
ALBERT LEA     CLOUDY    43  43 100 NE9G16    30.06S
$$
MNZ078>079-086>088-094>096-011000-
   Southeast Minnesota

CITY           SKY/WX    TMP DP  RH WIND       PRES   REMARKS
ROCHESTER      CLOUDY    42  40  92 NE12      30.06F
RED WING       DRIZZLE   46  36  66 NE7       30.09S
STANTON        DRIZZLE   44  38  82 CALM      30.10R
DODGE CENTER   CLOUDY    43  41  93 NE9       30.07S
WINONA         CLOUDY    43  41  93 CALM      30.08S
AUSTIN         CLOUDY    43  37  81 NE8G16    30.04F
PRESTON        CLOUDY    42  37  82 NE10G17   30.05S
$$
ABBREVIATIONS USED IN REMARKS
   TC - TEMPERATURES IN CELSIUS
  WCI - WIND CHILL INDEX
   HX - HEAT INDEX
  VSB - VISIBILITY
$$




USA.gov is the U.S. government's official web portal to all federal, state and local government web resources and services.